TimeEDT,TemperatureF,Dew PointF,Humidity,Sea Level PressureIn,VisibilityMPH,Wind Direction,Wind SpeedMPH,Gust SpeedMPH,PrecipitationIn,Events,Conditions,WindDirDegrees,DateUTC
12:15 AM,64.4,46.4,52,30.00,10.0,NNE,4.6,-,N/A,,Clear,30,2013-05-17 04:15:00
12:35 AM,62.6,46.4,55,30.00,10.0,NE,3.5,-,N/A,,Clear,40,2013-05-17 04:35:00
12:55 AM,62.6,44.6,52,30.00,10.0,ENE,3.5,-,N/A,,Clear,60,2013-05-17 04:55:00
1:14 AM,62.6,44.6,52,30.00,10.0,ENE,3.5,-,N/A,,Clear,70,2013-05-17 05:14:00
1:35 AM,62.6,44.6,52,30.00,10.0,Calm,Calm,-,N/A,,Clear,0,2013-05-17 05:35:00
1:55 AM,62.6,42.8,48,29.99,10.0,ENE,5.8,-,N/A,,Clear,70,2013-05-17 05:55:00
2:14 AM,60.8,44.6,55,29.99,10.0,NE,6.9,-,N/A,,Clear,40,2013-05-17 06:14:00
2:35 AM,59.0,46.4,63,29.99,10.0,NE,9.2,-,N/A,,Clear,50,2013-05-17 06:35:00
2:55 AM,60.8,44.6,55,29.99,10.0,ENE,10.4,-,N/A,,Clear,60,2013-05-17 06:55:00
3:14 AM,60.8,44.6,55,29.99,10.0,East,11.5,-,N/A,,Clear,80,2013-05-17 07:14:00
3:35 AM,59.0,44.6,59,30.00,10.0,East,10.4,-,N/A,,Clear,80,2013-05-17 07:35:00
3:55 AM,59.0,44.6,59,30.01,10.0,East,9.2,-,N/A,,Clear,80,2013-05-17 07:55:00
4:14 AM,57.2,44.6,63,30.02,10.0,East,5.8,-,N/A,,Clear,90,2013-05-17 08:14:00
4:35 AM,57.2,44.6,63,30.02,10.0,East,8.1,-,N/A,,Clear,90,2013-05-17 08:35:00
4:55 AM,57.2,42.8,59,30.03,10.0,East,4.6,-,N/A,,Clear,100,2013-05-17 08:55:00
5:14 AM,57.2,39.2,51,30.02,10.0,ESE,10.4,-,N/A,,Clear,110,2013-05-17 09:14:00
5:35 AM,55.4,39.2,54,30.03,10.0,East,10.4,-,N/A,,Clear,100,2013-05-17 09:35:00
5:54 AM,55.4,39.2,54,30.03,10.0,East,8.1,-,N/A,,Clear,90,2013-05-17 09:54:00
6:15 AM,55.4,37.4,51,30.04,10.0,East,8.1,-,N/A,,Clear,90,2013-05-17 10:15:00
6:35 AM,53.6,37.4,54,30.05,10.0,East,8.1,-,N/A,,Clear,90,2013-05-17 10:35:00
6:54 AM,53.6,37.4,54,30.06,10.0,ESE,5.8,-,N/A,,Clear,120,2013-05-17 10:54:00
7:15 AM,53.6,37.4,54,30.06,10.0,East,5.8,-,N/A,,Clear,100,2013-05-17 11:15:00
7:35 AM,55.4,37.4,51,30.06,10.0,East,5.8,-,N/A,,Clear,90,2013-05-17 11:35:00
7:54 AM,57.2,37.4,48,30.07,10.0,East,6.9,-,N/A,,Clear,100,2013-05-17 11:54:00
8:15 AM,60.8,37.4,42,30.08,10.0,East,6.9,-,N/A,,Clear,100,2013-05-17 12:15:00
8:35 AM,59.0,37.4,45,30.08,10.0,SE,8.1,-,N/A,,Clear,130,2013-05-17 12:35:00
8:54 AM,60.8,37.4,42,30.09,10.0,ESE,12.7,-,N/A,,Clear,110,2013-05-17 12:54:00
9:15 AM,62.6,39.2,42,30.09,10.0,ESE,9.2,-,N/A,,Clear,120,2013-05-17 13:15:00
9:35 AM,64.4,39.2,40,30.08,10.0,ESE,9.2,-,N/A,,Clear,110,2013-05-17 13:35:00
9:54 AM,64.4,41.0,42,30.08,10.0,SE,8.1,-,N/A,,Clear,130,2013-05-17 13:54:00
10:15 AM,66.2,42.8,43,30.08,10.0,East,9.2,-,N/A,,Clear,100,2013-05-17 14:15:00
10:34 AM,68.0,42.8,40,30.08,10.0,East,11.5,-,N/A,,Clear,90,2013-05-17 14:34:00
10:55 AM,69.8,42.8,38,30.08,10.0,ESE,5.8,-,N/A,,Clear,120,2013-05-17 14:55:00
11:15 AM,71.6,42.8,35,30.07,10.0,ESE,9.2,-,N/A,,Clear,120,2013-05-17 15:15:00
11:34 AM,71.6,42.8,35,30.07,10.0,SE,10.4,-,N/A,,Clear,130,2013-05-17 15:34:00
11:55 AM,73.4,44.6,36,30.08,10.0,SE,9.2,-,N/A,,Clear,130,2013-05-17 15:55:00
12:15 PM,73.4,44.6,36,30.08,10.0,ESE,5.8,-,N/A,,Clear,120,2013-05-17 16:15:00
12:34 PM,73.4,44.6,36,30.07,10.0,East,8.1,-,N/A,,Clear,100,2013-05-17 16:34:00
1:14 PM,75.2,46.4,36,30.07,10.0,East,9.2,-,N/A,,Clear,80,2013-05-17 17:14:00
1:35 PM,75.2,46.4,36,30.07,10.0,East,9.2,-,N/A,,Clear,100,2013-05-17 17:35:00
1:55 PM,75.2,46.4,36,30.07,10.0,East,10.4,-,N/A,,Clear,90,2013-05-17 17:55:00
2:14 PM,75.2,46.4,36,30.06,10.0,East,9.2,-,N/A,,Clear,90,2013-05-17 18:14:00
2:35 PM,75.2,46.4,36,30.06,10.0,East,9.2,-,N/A,,Clear,80,2013-05-17 18:35:00
3:15 PM,78.8,48.2,34,30.05,10.0,East,12.7,16.1,N/A,,Clear,100,2013-05-17 19:15:00
3:35 PM,77.0,46.4,34,30.05,10.0,East,11.5,-,N/A,,Clear,90,2013-05-17 19:35:00
3:54 PM,75.2,46.4,36,30.04,10.0,East,10.4,-,N/A,,Clear,90,2013-05-17 19:54:00
4:15 PM,77.0,46.4,34,30.03,10.0,East,10.4,-,N/A,,Clear,100,2013-05-17 20:15:00
4:35 PM,77.0,46.4,34,30.03,10.0,East,9.2,-,N/A,,Scattered Clouds,100,2013-05-17 20:35:00
4:54 PM,78.8,46.4,32,30.02,10.0,East,11.5,-,N/A,,Scattered Clouds,90,2013-05-17 20:54:00
5:15 PM,78.8,46.4,32,30.02,10.0,East,11.5,-,N/A,,Clear,90,2013-05-17 21:15:00
5:35 PM,78.8,46.4,32,30.02,10.0,East,13.8,17.3,N/A,,Scattered Clouds,90,2013-05-17 21:35:00
5:54 PM,77.0,46.4,34,30.03,10.0,East,13.8,-,N/A,,Scattered Clouds,100,2013-05-17 21:54:00
6:15 PM,78.8,44.6,30,30.03,10.0,East,13.8,18.4,N/A,,Scattered Clouds,90,2013-05-17 22:15:00
6:35 PM,75.2,44.6,34,30.03,10.0,ESE,13.8,-,N/A,,Scattered Clouds,110,2013-05-17 22:35:00
6:54 PM,75.2,44.6,34,30.04,10.0,East,12.7,-,N/A,,Scattered Clouds,100,2013-05-17 22:54:00
7:15 PM,75.2,44.6,34,30.04,10.0,East,13.8,-,N/A,,Scattered Clouds,100,2013-05-17 23:15:00
7:35 PM,73.4,44.6,36,30.04,10.0,ESE,11.5,20.7,N/A,,Mostly Cloudy,110,2013-05-17 23:35:00
7:54 PM,73.4,44.6,36,30.05,10.0,ESE,9.2,-,N/A,,Mostly Cloudy,110,2013-05-17 23:54:00
8:15 PM,71.6,44.6,38,30.05,10.0,ESE,11.5,18.4,N/A,,Overcast,120,2013-05-18 00:15:00
8:34 PM,71.6,44.6,38,30.06,10.0,ESE,9.2,-,N/A,,Scattered Clouds,120,2013-05-18 00:34:00
8:55 PM,69.8,44.6,40,30.07,10.0,ESE,9.2,17.3,N/A,,Mostly Cloudy,120,2013-05-18 00:55:00
9:15 PM,69.8,46.4,43,30.08,10.0,SE,13.8,19.6,N/A,,Mostly Cloudy,130,2013-05-18 01:15:00
9:34 PM,69.8,46.4,43,30.10,10.0,SE,12.7,17.3,N/A,,Mostly Cloudy,140,2013-05-18 01:34:00
9:55 PM,66.2,42.8,43,30.10,10.0,SE,13.8,-,N/A,,Scattered Clouds,140,2013-05-18 01:55:00
10:15 PM,66.2,42.8,43,30.10,10.0,SE,10.4,-,N/A,,Scattered Clouds,140,2013-05-18 02:15:00
10:34 PM,64.4,41.0,42,30.11,10.0,ESE,10.4,-,N/A,,Clear,120,2013-05-18 02:34:00
10:55 PM,64.4,41.0,42,30.10,10.0,East,9.2,-,N/A,,Clear,100,2013-05-18 02:55:00
11:14 PM,62.6,42.8,48,30.10,10.0,East,8.1,-,N/A,,Clear,90,2013-05-18 03:14:00
11:35 PM,62.6,41.0,45,30.10,10.0,East,6.9,-,N/A,,Clear,100,2013-05-18 03:35:00
11:55 PM,60.8,41.0,48,30.10,10.0,East,8.1,-,N/A,,Clear,90,2013-05-18 03:55:00